LU3HGB-WX Weather Reports


time (UTC)temp
C
wind
direction
speed
KPH
gust
KPH
rain 1hr
cm
rain 24hr
cm
rain mn
cm
humidity
%
barometer
mb
20260506012243 14 51 1.6 3.2 0.00 0.00 0.00 90 1013.0
20260506011739 14 288 1.6 3.2 0.00 0.00 0.00 90 1013.0
20260506011239 14 276 1.6 3.2 0.00 0.00 0.00 90 1013.0
20260506010739 14 288 0.0 3.2 0.00 0.00 0.00 90 1013.0
20260506010239 15 304 3.2 4.8 0.00 0.00 0.00 90 1013.0
20260506005740 15 279 3.2 3.2 0.00 0.00 0.00 87 1013.0
20260506005240 15 319 1.6 4.8 0.00 0.00 0.00 87 1013.0
20260506004740 15 299 0.0 1.6 0.00 0.00 0.00 87 1013.0
20260506004240 16 340 0.0 4.8 0.00 0.00 0.00 86 1013.0
20260506003739 16 286 0.0 1.6 0.00 0.00 0.00 87 1013.0
20260506003240 16 269 0.0 1.6 0.00 0.00 0.00 87 1013.0
20260506002740 16 307 1.6 3.2 0.00 0.00 0.00 86 1013.0
20260506002240 16 338 0.0 1.6 0.00 0.00 0.00 86 1013.0
20260506001739 16 314 0.0 3.2 0.00 0.00 0.00 86 1013.0
20260506001239 16 0 0.0 1.6 0.00 0.00 0.00 85 1013.0
20260506000739 16 303 0.0 0.0 0.00 0.00 0.00 85 1013.0
20260506000240 16 5 0.0 1.6 0.00 0.00 0.00 85 1013.0
20260505235740 16 338 0.0 1.6 0.00 0.00 0.00 84 1013.0
20260505235240 16 89 0.0 3.2 0.00 0.00 0.00 85 1013.0
20260505234739 15 255 0.0 1.6 0.00 0.00 0.00 86 1013.0
20260505234240 15 309 1.6 3.2 0.00 0.00 0.00 86 1013.0
20260505233739 15 301 1.6 3.2 0.00 0.00 0.00 86 1013.0
20260505233239 15 311 1.6 3.2 0.00 0.00 0.00 89 1013.0
20260505232739 15 295 1.6 3.2 0.00 0.00 0.00 89 1013.0
20260505232239 15 298 1.6 3.2 0.00 0.00 0.00 88 1013.0
20260505231739 14 324 0.0 3.2 0.00 0.00 0.00 88 1013.0
20260505231239 14 22 0.0 1.6 0.00 0.00 0.00 88 1012.0
20260505230739 14 264 1.6 3.2 0.00 0.00 0.00 88 1012.0
20260505230240 13 314 0.0 1.6 0.00 0.00 0.00 88 1012.0
20260505225739 13 296 1.6 3.2 0.00 0.00 0.00 88 1012.0
20260505225240 14 265 1.6 3.2 0.00 0.00 0.00 87 1012.0
20260505224740 14 294 1.6 3.2 0.00 0.00 0.00 87 1012.0
20260505224240 15 291 0.0 3.2 0.00 0.00 0.00 85 1012.0
20260505223740 15 304 3.2 4.8 0.00 0.00 0.00 85 1012.0
20260505223240 15 313 0.0 3.2 0.00 0.00 0.00 86 1012.0
20260505222741 15 228 1.6 1.6 0.00 0.00 0.00 85 1012.0
20260505222241 15 207 1.6 3.2 0.00 0.00 0.00 84 1011.0
20260505221740 16 177 0.0 3.2 0.00 0.00 0.00 83 1011.0
20260505221239 16 282 0.0 0.0 0.00 0.00 0.00 83 1011.0
20260505220740 16 310 1.6 3.2 0.00 0.00 0.00 82 1011.0
20260505220240 17 272 1.6 1.6 0.00 0.00 0.00 78 1011.0
20260505215740 17 330 0.0 0.0 0.00 0.00 0.00 78 1011.0
20260505215239 18 278 0.0 1.6 0.00 0.00 0.00 76 1011.0
20260505214742 18 273 1.6 3.2 0.00 0.00 0.00 75 1011.0
20260505214240 19 309 1.6 3.2 0.00 0.00 0.00 73 1011.0
20260505213739 20 336 0.0 1.6 0.00 0.00 0.00 70 1011.0
20260505213240 20 29 0.0 1.6 0.00 0.00 0.00 69 1011.0
20260505212743 20 20 0.0 1.6 0.00 0.00 0.00 67 1011.0
20260505212239 21 24 0.0 3.2 0.00 0.00 0.00 65 1011.0
20260505211740 21 337 0.0 3.2 0.00 0.00 0.00 63 1011.0
20260505211240 21 335 0.0 1.6 0.00 0.00 0.00 63 1011.0
20260505210257 21 342 3.2 4.8 0.00 0.00 0.00 62 1011.0
20260505205739 22 341 1.6 3.2 0.00 0.00 0.00 60 1011.0
20260505205239 22 343 1.6 4.8 0.00 0.00 0.00 58 1011.0
20260505204740 22 349 3.2 4.8 0.00 0.00 0.00 57 1010.0
20260505204240 23 329 3.2 4.8 0.00 0.00 0.00 56 1010.0
20260505203740 23 347 3.2 6.4 0.00 0.00 0.00 54 1010.0
20260505203240 23 314 3.2 6.4 0.00 0.00 0.00 54 1010.0
20260505202739 24 307 3.2 4.8 0.00 0.00 0.00 52 1011.0
20260505202239 24 340 0.0 1.6 0.00 0.00 0.00 51 1011.0
20260505201739 24 48 1.6 3.2 0.00 0.00 0.00 51 1011.0
20260505201239 23 89 1.6 3.2 0.00 0.00 0.00 52 1011.0
20260505200739 23 336 4.8 6.4 0.00 0.00 0.00 51 1011.0
20260505200240 24 325 3.2 6.4 0.00 0.00 0.00 52 1010.0
20260505195740 24 332 3.2 6.4 0.00 0.00 0.00 51 1010.0
20260505195239 24 339 1.6 3.2 0.00 0.00 0.00 51 1010.0
20260505194739 24 338 3.2 4.8 0.00 0.00 0.00 52 1010.0
20260505194240 24 346 1.6 4.8 0.00 0.00 0.00 52 1010.0
20260505193739 25 315 1.6 4.8 0.00 0.00 0.00 50 1010.0
20260505193239 25 0 3.2 4.8 0.00 0.00 0.00 48 1010.0
20260505192740 24 332 1.6 3.2 0.00 0.00 0.00 49 1011.0
20260505192239 24 349 4.8 6.4 0.00 0.00 0.00 48 1011.0
20260505191740 24 330 3.2 4.8 0.00 0.00 0.00 50 1011.0
20260505191239 24 327 3.2 4.8 0.00 0.00 0.00 50 1011.0
20260505190740 23 323 3.2 6.4 0.00 0.00 0.00 52 1011.0
20260505190240 24 351 3.2 6.4 0.00 0.00 0.00 51 1011.0
20260505185740 24 325 3.2 4.8 0.00 0.00 0.00 53 1011.0
20260505185239 24 353 4.8 6.4 0.00 0.00 0.00 49 1011.0
20260505184739 24 118 1.6 3.2 0.00 0.00 0.00 51 1011.0
20260505184239 24 355 3.2 8.0 0.00 0.00 0.00 52 1011.0
20260505183739 25 5 3.2 6.4 0.00 0.00 0.00 49 1011.0
20260505183240 25 3 3.2 8.0 0.00 0.00 0.00 51 1011.0
20260505182739 25 329 3.2 6.4 0.00 0.00 0.00 51 1011.0
20260505182239 25 329 4.8 6.4 0.00 0.00 0.00 49 1011.0
20260505181739 25 2 3.2 6.4 0.00 0.00 0.00 49 1011.0
20260505181240 24 10 3.2 4.8 0.00 0.00 0.00 49 1011.0
20260505180740 24 329 3.2 6.4 0.00 0.00 0.00 50 1011.0
20260505180239 24 114 3.2 4.8 0.00 0.00 0.00 47 1011.0
20260505175740 24 8 3.2 8.0 0.00 0.00 0.00 50 1011.0
20260505175239 24 339 6.4 11.3 0.00 0.00 0.00 50 1011.0
20260505174742 24 329 3.2 6.4 0.00 0.00 0.00 49 1011.0
20260505174240 25 35 1.6 4.8 0.00 0.00 0.00 51 1012.0
20260505173739 24 347 3.2 6.4 0.00 0.00 0.00 49 1012.0
20260505173240 24 30 3.2 8.0 0.00 0.00 0.00 50 1012.0
20260505172739 25 98 3.2 6.4 0.00 0.00 0.00 49 1012.0
20260505172240 25 79 1.6 4.8 0.00 0.00 0.00 50 1012.0
20260505171740 25 329 0.0 3.2 0.00 0.00 0.00 47 1012.0
20260505171240 25 63 3.2 4.8 0.00 0.00 0.00 48 1012.0
20260505170740 24 101 1.6 3.2 0.00 0.00 0.00 48 1012.0
20260505170240 24 124 3.2 6.4 0.00 0.00 0.00 47 1012.0
20260505165739 23 311 1.6 3.2 0.00 0.00 0.00 51 1012.0
20260505165240 23 288 3.2 4.8 0.00 0.00 0.00 49 1012.0
20260505164740 23 192 3.2 4.8 0.00 0.00 0.00 49 1012.0
20260505164240 23 95 1.6 4.8 0.00 0.00 0.00 50 1012.0
20260505163740 23 104 3.2 6.4 0.00 0.00 0.00 50 1012.0
20260505163240 23 125 4.8 6.4 0.00 0.00 0.00 49 1012.0
20260505162739 23 192 3.2 6.4 0.00 0.00 0.00 51 1012.0
20260505162240 23 107 3.2 6.4 0.00 0.00 0.00 51 1012.0
20260505161740 22 113 3.2 4.8 0.00 0.00 0.00 51 1012.0
20260505161240 22 213 1.6 4.8 0.00 0.00 0.00 51 1013.0
20260505160740 22 13 3.2 4.8 0.00 0.00 0.00 54 1013.0
20260505160239 22 99 1.6 3.2 0.00 0.00 0.00 52 1013.0
20260505153239 21 27 0.0 3.2 0.00 0.00 0.00 55 1013.0
20260505152740 21 7 1.6 3.2 0.00 0.00 0.00 58 1013.0
20260505152239 20 324 1.6 3.2 0.00 0.00 0.00 59 1013.0
20260505151739 20 67 3.2 4.8 0.00 0.00 0.00 61 1013.0
20260505151239 20 28 3.2 6.4 0.00 0.00 0.00 62 1013.0
20260505150742 20 313 3.2 6.4 0.00 0.00 0.00 60 1013.0
20260505150241 20 317 1.6 3.2 0.00 0.00 0.00 60 1013.0
20260505140239 17 13 1.6 3.2 0.00 0.00 0.00 71 1013.0
20260505130240 13 277 3.2 4.8 0.00 0.00 0.00 81 1014.0
20260505124739 12 19 1.6 3.2 0.00 0.00 0.00 86 1014.0
20260505124240 11 304 0.0 1.6 0.00 0.00 0.00 87 1013.0
20260505123740 11 20 1.6 1.6 0.00 0.00 0.00 91 1013.0
20260505123239 11 44 0.0 3.2 0.00 0.00 0.00 93 1013.0
20260505122743 11 17 1.6 1.6 0.00 0.00 0.00 94 1013.0
20260505122239 10 39 0.0 1.6 0.00 0.00 0.00 95 1013.0
20260505121739 10 20 0.0 1.6 0.00 0.00 0.00 95 1012.0
20260505121240 10 251 0.0 3.2 0.00 0.00 0.00 95 1012.0
20260505120740 9 354 0.0 1.6 0.00 0.00 0.00 95 1013.0
20260505120240 8 111 0.0 3.2 0.00 0.00 0.00 95 1013.0
20260505115740 8 0 0.0 1.6 0.00 0.00 0.00 95 1013.0
20260505115240 7 333 0.0 1.6 0.00 0.00 0.00 95 1013.0
20260505114740 7 353 0.0 1.6 0.00 0.00 0.00 95 1013.0
20260505114240 7 31 1.6 3.2 0.00 0.00 0.00 95 1013.0
20260505113739 7 311 1.6 3.2 0.00 0.00 0.00 95 1013.0
20260505113240 7 222 1.6 1.6 0.00 0.00 0.00 95 1013.0
20260505112740 7 209 0.0 0.0 0.00 0.00 0.00 95 1013.0
20260505112239 7 237 1.6 3.2 0.00 0.00 0.00 95 1013.0
20260505111739 7 0 0.0 0.0 0.00 0.00 0.00 95 1013.0
20260505111240 7 166 0.0 0.0 0.00 0.00 0.00 95 1013.0
20260505110739 7 0 0.0 0.0 0.00 0.00 0.00 95 1013.0
20260505110239 7 37 0.0 0.0 0.00 0.00 0.00 95 1013.0
20260505101739 6 301 0.0 1.6 0.00 0.00 0.00 95 1013.0
20260505101239 6 38 0.0 1.6 0.00 0.00 0.00 95 1013.0
20260505100741 6 283 1.6 3.2 0.00 0.00 0.00 95 1013.0
20260505100239 6 285 0.0 1.6 0.00 0.00 0.00 95 1013.0
20260505095739 6 273 1.6 3.2 0.00 0.00 0.00 95 1013.0
20260505095239 6 293 0.0 0.0 0.00 0.00 0.00 95 1013.0
20260505094739 6 201 0.0 0.0 0.00 0.00 0.00 95 1012.0
20260505094239 6 322 1.6 1.6 0.00 0.00 0.00 95 1012.0
20260505093739 6 0 0.0 0.0 0.00 0.00 0.00 95 1012.0
20260505093240 6 281 1.6 3.2 0.00 0.00 0.00 95 1012.0
20260505092739 6 17 0.0 1.6 0.00 0.00 0.00 95 1012.0
20260505092239 6 316 1.6 3.2 0.00 0.00 0.00 95 1012.0
20260505091739 7 186 1.6 1.6 0.00 0.00 0.00 95 1012.0
20260505091239 7 326 0.0 1.6 0.00 0.00 0.00 95 1012.0
20260505090739 7 0 0.0 0.0 0.00 0.00 0.00 95 1012.0
20260505090239 7 295 3.2 4.8 0.00 0.00 0.00 95 1012.0
20260505085740 7 209 3.2 6.4 0.00 0.00 0.00 95 1012.0
20260505085239 6 280 1.6 1.6 0.00 0.00 0.00 95 1012.0
20260505084739 6 285 0.0 1.6 0.00 0.00 0.00 95 1012.0
20260505084240 7 325 0.0 0.0 0.00 0.00 0.00 95 1012.0
20260505083740 7 319 1.6 1.6 0.00 0.00 0.00 95 1012.0
20260505083240 7 278 3.2 3.2 0.00 0.00 0.00 95 1012.0
20260505082739 7 190 0.0 3.2 0.00 0.00 0.00 95 1012.0
20260505082239 6 284 1.6 3.2 0.00 0.00 0.00 95 1012.0
20260505081741 6 273 1.6 1.6 0.00 0.00 0.00 95 1012.0
20260505081239 6 326 3.2 6.4 0.00 0.00 0.00 95 1012.0
20260505080739 6 315 3.2 3.2 0.00 0.00 0.00 95 1012.0
20260505080240 6 328 1.6 3.2 0.00 0.00 0.00 95 1011.0
20260505075739 6 313 0.0 0.0 0.00 0.00 0.00 95 1011.0
20260505075240 7 265 3.2 3.2 0.00 0.00 0.00 94 1011.0
20260505074739 7 302 3.2 4.8 0.00 0.00 0.00 95 1011.0
20260505074244 7 337 0.0 1.6 0.00 0.00 0.00 95 1011.0
20260505073741 8 263 1.6 3.2 0.00 0.00 0.00 95 1011.0
20260505073240 8 42 0.0 1.6 0.00 0.00 0.00 95 1011.0
20260505072739 8 105 0.0 0.0 0.00 0.00 0.00 95 1011.0
20260505072239 8 60 0.0 0.0 0.00 0.00 0.00 95 1011.0
20260505071741 8 179 1.6 3.2 0.00 0.00 0.00 95 1012.0
20260505071239 8 196 4.8 4.8 0.00 0.00 0.00 95 1012.0
20260505070740 7 247 3.2 3.2 0.00 0.00 0.00 95 1012.0
20260505070241 6 209 1.6 1.6 0.00 0.00 0.00 95 1012.0
20260505065740 6 0 0.0 0.0 0.00 0.00 0.00 95 1012.0
20260505065239 6 141 3.2 4.8 0.00 0.00 0.00 95 1012.0
20260505064739 6 216 0.0 0.0 0.00 0.00 0.00 95 1012.0
20260505064239 6 302 1.6 3.2 0.00 0.00 0.00 95 1012.0
20260505063739 6 286 1.6 1.6 0.00 0.00 0.00 95 1012.0
20260505063239 6 288 1.6 1.6 0.00 0.00 0.00 95 1012.0
20260505062740 6 265 0.0 1.6 0.00 0.00 0.00 95 1012.0
20260505062240 6 226 1.6 3.2 0.00 0.00 0.00 95 1012.0
20260505061739 6 328 1.6 1.6 0.00 0.00 0.00 95 1012.0
20260505061240 6 251 1.6 1.6 0.00 0.00 0.00 95 1012.0
20260505060739 6 318 3.2 3.2 0.00 0.00 0.00 95 1012.0
20260505060239 6 0 0.0 0.0 0.00 0.00 0.00 95 1012.0
20260505055739 6 253 1.6 1.6 0.00 0.00 0.00 95 1012.0
20260505055239 6 330 0.0 1.6 0.00 0.00 0.00 95 1012.0
20260505054739 6 328 1.6 1.6 0.00 0.00 0.00 95 1013.0
20260505054239 6 321 1.6 3.2 0.00 0.00 0.00 95 1013.0
20260505053740 6 308 3.2 3.2 0.00 0.00 0.00 95 1013.0
20260505053239 6 331 0.0 1.6 0.00 0.00 0.00 95 1013.0
20260505052740 7 274 1.6 3.2 0.00 0.00 0.00 95 1013.0
20260505052239 7 131 0.0 0.0 0.00 0.00 0.00 95 1013.0
20260505051739 6 286 0.0 0.0 0.00 0.00 0.00 95 1013.0
20260505051239 7 340 1.6 3.2 0.00 0.00 0.00 95 1013.0
20260505050739 7 252 3.2 3.2 0.00 0.00 0.00 95 1013.0
20260505050239 7 337 0.0 1.6 0.00 0.00 0.00 95 1013.0
20260505041739 8 252 0.0 1.6 0.00 0.00 0.00 95 1013.0
20260505041239 8 243 0.0 1.6 0.00 0.00 0.00 94 1013.0
20260505040739 8 0 0.0 0.0 0.00 0.00 0.00 95 1013.0
20260505040240 8 236 0.0 1.6 0.00 0.00 0.00 95 1013.0
20260505035739 8 263 0.0 1.6 0.00 0.00 0.00 95 1013.0
20260505035240 8 267 1.6 3.2 0.00 0.00 0.00 94 1013.0
20260505034740 8 287 0.0 3.2 0.00 0.00 0.00 94 1013.0
20260505034239 8 295 3.2 4.8 0.00 0.00 0.00 94 1013.0
20260505033739 8 270 3.2 3.2 0.00 0.00 0.00 94 1013.0
20260505033240 8 1 0.0 1.6 0.00 0.00 0.00 94 1013.0
20260505032739 8 6 0.0 1.6 0.00 0.00 0.00 94 1013.0
20260505032239 8 283 1.6 3.2 0.00 0.00 0.00 94 1013.0
20260505031739 8 309 0.0 3.2 0.00 0.00 0.00 94 1013.0
20260505031240 9 307 0.0 1.6 0.00 0.00 0.00 93 1013.0
20260505030739 9 274 1.6 3.2 0.00 0.00 0.00 94 1013.0
20260505030239 9 268 1.6 3.2 0.00 0.00 0.00 94 1013.0
20260505025739 9 270 1.6 3.2 0.00 0.00 0.00 94 1013.0
20260505025239 9 269 0.0 1.6 0.00 0.00 0.00 94 1013.0
20260505024739 9 280 0.0 1.6 0.00 0.00 0.00 94 1013.0
20260505024239 9 279 1.6 3.2 0.00 0.00 0.00 94 1013.0
20260505023739 9 255 1.6 3.2 0.00 0.00 0.00 94 1013.0
20260505023239 9 289 4.8 6.4 0.00 0.00 0.00 93 1013.0
20260505022739 9 0 0.0 0.0 0.00 0.00 0.00 93 1013.0
20260505022239 9 312 1.6 3.2 0.00 0.00 0.00 93 1013.0
20260505021739 9 285 0.0 3.2 0.00 0.00 0.00 93 1013.0
20260505021239 9 270 0.0 1.6 0.00 0.00 0.00 93 1013.0
20260505020740 9 0 0.0 0.0 0.00 0.00 0.00 93 1012.0
20260505020239 9 0 0.0 0.0 0.00 0.00 0.00 93 1013.0
20260505015739 9 294 0.0 3.2 0.00 0.00 0.00 93 1013.0
20260505015240 9 292 1.6 3.2 0.00 0.00 0.00 93 1013.0
20260505014739 8 285 1.6 4.8 0.00 0.00 0.00 93 1013.0
20260505014240 8 326 0.0 3.2 0.00 0.00 0.00 93 1013.0
20260505013739 8 346 1.6 3.2 0.00 0.00 0.00 92 1013.0
20260505013240 8 294 3.2 3.2 0.00 0.00 0.00 92 1012.0
20260505012739 8 334 0.0 1.6 0.00 0.00 0.00 92 1012.0